Weather History for Jordan, MT

Change the Weather History Date:

Monday, October 14, 2013

  Actual Average Record
Temperature  
Mean Temperature 42 °F 45 °F  
Max Temperature 50 °F 60 °F 86 °F (1910)
Min Temperature 34 °F 30 °F 18 °F (1987)
Degree Days  
Heating Degree Days 23 20  
Month to date heating degree days 277 244  
Since 1 July heating degree days 438 570  
Cooling Degree Days 0 0  
Month to date cooling degree days 0 0  
Year to date cooling degree days 520 420  
Moisture  
Dew Point 30 °F    
Average Humidity 63    
Maximum Humidity 92    
Minimum Humidity 34    
Precipitation  
Precipitation 0.05 in 0.03 in 0.35 in (1975)
Month to date precipitation 0.20 0.40  
Year to date precipitation 15.66 11.53  
Snow  
Snow 0.00 in - - ()
Month to date snowfall 0.0  
Since 1 July snowfall 0.0  
Since 1 September snowfall 0.0  
Snow Depth 0.00 in    
Sea Level Pressure  
Sea Level Pressure 30.33 in    
Wind  
Wind Speed 11 mph (North)    
Max Wind Speed 23 mph    
Max Gust Speed 29 mph    
T = Trace of Precipitation, MM = Missing Value Source: NWS Daily Summary

Daily Weather History Graph

Daily Weather History Graph

Search for Another Location

Airport:

Trip Planner

Search our weather history database for the weather conditions in past years. The results will help you decide how hot, cold, wet, or windy it might be!

Date:

Astronomy

Oct. 14, 2013 Rise Set
Actual Time 7:25 AM MDT 6:21 PM MDT
Civil Twilight 6:54 AM MDT 6:52 PM MDT
Nautical Twilight 6:18 AM MDT 7:27 PM MDT
Astronomical Twilight 5:43 AM MDT 8:03 PM MDT
Moon 4:07 PM MDT (10/14) 2:27 AM MDT (10/14)
Length of Visible Light 11h 57m
Length of Day
10h 56m
Waxing Gibbous, 80% of the Moon is Illuminated
Oct 14
Waxing Gibbous
Oct 18
Full
Oct 26
Last Quarter
Nov 3
New
Nov 9
First Quarter

Hourly Weather History & Observations

Time (MDT) Temp. Windchill Dew Point Humidity Pressure Visibility Wind Dir Wind Speed Gust Speed Precip Events Conditions
12:48 AM 41.0 °F 36.4 °F 37.9 °F 89% 30.24 in - NNE 6.9 mph - N/A   Unknown
1:48 AM 41.0 °F 38.0 °F 37.9 °F 89% 30.24 in - NE 4.6 mph - N/A   Unknown
2:48 AM 41.0 °F 35.2 °F 37.0 °F 86% 30.25 in - NE 9.2 mph - N/A   Unknown
3:48 AM 39.9 °F 33.9 °F 36.0 °F 86% 30.25 in - NNE 9.2 mph - 0.03 in   Unknown
4:48 AM 39.9 °F 32.9 °F 36.0 °F 86% 30.26 in - NNE 11.5 mph - 0.02 in   Unknown
5:48 AM 39.9 °F 32.5 °F 36.0 °F 86% 30.27 in - NE 12.7 mph - N/A   Unknown
6:48 AM 39.0 °F 34.8 °F 36.0 °F 89% 30.27 in - North 5.8 mph - N/A   Unknown
7:48 AM 37.9 °F 33.5 °F 35.1 °F 89% 30.30 in - North 5.8 mph - N/A   Unknown
8:48 AM 37.9 °F 31.5 °F 32.0 °F 79% 30.33 in - North 9.2 mph - N/A   Unknown
9:48 AM 42.1 °F 35.7 °F 30.9 °F 65% 30.33 in - North 11.5 mph - N/A   Unknown
10:48 AM 44.1 °F 37.1 °F 30.0 °F 58% 30.34 in - North 15.0 mph - N/A   Unknown
11:48 AM 46.9 °F - 28.0 °F 48% 30.34 in - NNE 16.1 mph - N/A   Unknown
12:48 PM 48.0 °F - 27.0 °F 44% 30.34 in - North 13.8 mph - N/A   Unknown
1:48 PM 48.0 °F - 24.1 °F 39% 30.33 in - NNE 20.7 mph 28.8 mph N/A   Unknown
2:48 PM 50.0 °F - 24.1 °F 36% 30.33 in - NNE 20.7 mph 27.6 mph N/A   Unknown
3:48 PM 48.9 °F - 21.9 °F 35% 30.34 in - NNE 17.3 mph 25.3 mph N/A   Unknown
4:48 PM 48.9 °F - 23.0 °F 36% 30.34 in - NE 16.1 mph 21.9 mph N/A   Unknown
5:48 PM 46.9 °F - 24.1 °F 41% 30.37 in - NE 6.9 mph - N/A   Unknown
6:48 PM 44.1 °F 41.5 °F 26.1 °F 49% 30.38 in - North 4.6 mph - N/A   Unknown
7:48 PM 42.1 °F 37.7 °F 27.0 °F 55% 30.40 in - NNW 6.9 mph - N/A   Unknown
8:48 PM 42.1 °F 37.7 °F 25.0 °F 51% 30.40 in - NNW 6.9 mph - N/A   Unknown
9:48 PM 43.0 °F 37.7 °F 24.1 °F 47% 30.40 in - NNW 9.2 mph - N/A   Unknown
10:48 PM 43.0 °F 37.7 °F 25.0 °F 49% 30.40 in - NW 9.2 mph - N/A   Unknown
11:48 PM 42.1 °F 37.1 °F 25.0 °F 51% 30.40 in - NNW 8.1 mph - N/A   Unknown